Location: Mason Neck State Park
(38.6428°N, 77.1981°W)
Time: 20:34:30
(UTC-04:00)

Cosmos 2278 Rocket - Visible Passes

Search period start: 27 April 2015 00:00
Search period end: 07 May 2015 00:00
Orbit: 840 x 847 km, 71.0° (Epoch: 27 April)

Date Brightness Start Highest point End Pass type
(mag) Time Alt. Az. Time Alt. Az. Time Alt. Az.
27 Apr 3.8 05:06:23 10° N 05:11:39 39° ENE 05:16:56 10° SE visible
27 Apr 5.5 21:44:16 10° WNW 21:46:49 13° NW 21:49:07 10° NNW visible
28 Apr 3.8 04:51:54 10° N 04:57:08 37° ENE 05:02:22 10° SE visible
28 Apr 5.5 21:29:31 10° WNW 21:32:17 13° NW 21:34:46 10° NNW visible
29 Apr 3.9 04:37:27 10° N 04:42:37 36° ENE 04:47:48 10° SE visible
29 Apr 5.4 21:14:48 10° W 21:17:45 14° NW 21:20:25 10° NNW visible
30 Apr 3.9 04:22:59 10° N 04:28:06 34° ENE 04:33:15 10° SE visible
30 Apr 5.4 21:00:05 10° W 21:03:12 14° NW 21:06:04 10° NNW visible
01 May 4.0 04:08:32 10° N 04:13:35 33° ENE 04:18:40 10° ESE visible
01 May 5.3 20:45:23 10° W 20:48:39 15° NW 20:51:41 10° NNW visible
02 May 4.0 03:54:04 10° N 03:59:04 32° ENE 04:04:06 10° ESE visible
02 May 2.8 05:38:05 10° NW 05:43:11 34° WSW 05:48:11 10° SSW visible
02 May 5.3 20:30:42 10° W 20:34:07 15° NW 20:37:18 10° NNW visible
03 May 4.0 03:39:37 10° N 03:44:33 30° ENE 03:49:31 10° ESE visible
03 May 2.7 05:23:33 10° NW 05:28:42 36° WSW 05:33:46 10° S visible
04 May 4.1 03:25:10 10° N 03:30:01 29° ENE 03:34:56 10° ESE visible
04 May 2.7 05:09:01 10° NW 05:14:13 38° WSW 05:19:20 10° S visible
05 May 4.1 03:10:42 10° N 03:15:30 28° ENE 03:20:22 10° ESE visible
05 May 2.6 04:54:29 10° NW 04:59:44 39° WSW 05:04:55 10° S visible
06 May 4.1 02:56:16 10° N 03:00:59 27° NE 03:05:46 10° ESE visible
06 May 2.6 04:39:57 10° NW 04:45:15 41° WSW 04:50:29 10° S visible
